Time,TemperatureF,DewpointF,PressureIn,WindDirection,WindDirectionDegrees,WindSpeedMPH,WindSpeedGustMPH,Humidity,HourlyPrecipIn,Conditions,Clouds,dailyrainin,SoftwareType,DateUTC
2013-11-22 00:21:00,52.0,49.0,29.86,South,182,0.0,1.0,90,0.00,,,0.27,,2013-11-22 08:21:00,
2013-11-22 00:42:00,52.0,49.0,29.85,South,182,0.0,1.0,90,0.00,,,0.27,,2013-11-22 08:42:00,
2013-11-22 00:52:00,52.0,49.0,29.85,South,182,0.0,1.0,90,0.00,,,0.27,,2013-11-22 08:52:00,
2013-11-22 01:11:00,52.0,49.0,29.85,South,182,0.0,1.0,90,0.00,,,0.27,,2013-11-22 09:11:00,
2013-11-22 01:21:00,51.0,48.0,29.85,East,82,3.0,6.0,90,0.00,,,0.12,,2013-11-22 09:21:00,
2013-11-22 01:43:00,51.0,48.0,29.85,East,82,0.0,4.0,89,0.00,,,0.12,,2013-11-22 09:43:00,
2013-11-22 01:53:00,51.0,48.0,29.84,East,82,0.0,0.0,90,0.00,,,0.12,,2013-11-22 09:53:00,
2013-11-22 02:23:00,51.0,48.0,29.85,East,82,0.0,0.0,88,0.00,,,0.03,,2013-11-22 10:23:00,
2013-11-22 02:42:00,50.0,47.0,29.84,East,82,0.0,0.0,88,0.00,,,0.03,,2013-11-22 10:42:00,
2013-11-22 02:52:00,50.0,46.0,29.84,East,82,0.0,0.0,86,0.00,,,0.03,,2013-11-22 10:52:00,
2013-11-22 03:12:00,50.0,46.0,29.84,East,82,0.0,0.0,85,0.00,,,0.03,,2013-11-22 11:12:00,
2013-11-22 03:22:00,50.0,47.0,29.84,East,84,0.0,0.0,89,0.00,,,0.03,,2013-11-22 11:22:00,
2013-11-22 03:52:00,49.0,45.0,29.84,East,84,0.0,0.0,86,0.00,,,0.03,,2013-11-22 11:52:00,
2013-11-22 04:21:00,49.0,45.0,29.85,East,84,0.0,0.0,85,0.00,,,0.01,,2013-11-22 12:21:00,
2013-11-22 04:42:00,49.0,45.0,29.84,East,84,0.0,0.0,85,0.00,,,0.01,,2013-11-22 12:42:00,
2013-11-22 04:52:00,49.0,43.0,29.85,East,84,0.0,0.0,80,0.00,,,0.01,,2013-11-22 12:52:00,
2013-11-22 05:22:00,49.0,42.0,29.85,East,84,0.0,0.0,76,0.00,,,0.00,,2013-11-22 13:22:00,
2013-11-22 05:42:00,49.0,42.0,29.85,East,84,0.0,3.0,78,0.00,,,0.00,,2013-11-22 13:42:00,
2013-11-22 05:52:00,49.0,42.0,29.86,East,84,0.0,3.0,76,0.00,,,0.00,,2013-11-22 13:52:00,
2013-11-22 06:21:00,49.0,41.0,29.87,East,84,0.0,0.0,74,0.00,,,0.00,,2013-11-22 14:21:00,
2013-11-22 06:42:00,49.0,41.0,29.87,East,84,2.0,3.0,75,0.00,,,0.00,,2013-11-22 14:42:00,
2013-11-22 06:52:00,48.0,40.0,29.87,East,84,0.0,1.0,74,0.00,,,0.00,,2013-11-22 14:52:00,
2013-11-22 07:22:00,49.0,39.0,29.88,East,84,0.0,0.0,68,0.00,,,0.00,,2013-11-22 15:22:00,
2013-11-22 07:43:00,50.0,40.0,29.88,East,84,0.0,0.0,68,0.00,,,0.00,,2013-11-22 15:43:00,
2013-11-22 07:54:00,50.0,39.0,29.88,East,84,0.0,0.0,65,0.00,,,0.00,,2013-11-22 15:54:00,
2013-11-22 08:23:00,52.0,42.0,29.89,East,84,0.0,0.0,69,0.00,,,0.00,,2013-11-22 16:23:00,
2013-11-22 08:43:00,54.0,43.0,29.90,East,84,0.0,0.0,65,0.00,,,0.00,,2013-11-22 16:43:00,
2013-11-22 09:52:00,60.0,41.0,29.90,East,85,1.0,4.0,50,0.00,,,0.00,,2013-11-22 17:52:00,
2013-11-22 10:52:00,64.0,40.0,29.88,SW,227,1.0,4.0,42,0.00,,,0.00,,2013-11-22 18:52:00,
2013-11-22 11:21:00,65.0,41.0,29.87,WSW,242,2.0,7.0,42,0.00,,,0.00,,2013-11-22 19:21:00,
2013-11-22 11:42:00,66.0,42.0,29.88,NE,54,2.0,5.0,42,0.00,,,0.00,,2013-11-22 19:42:00,
2013-11-22 11:52:00,65.0,42.0,29.87,SSW,202,1.0,8.0,43,0.00,,,0.00,,2013-11-22 19:52:00,
2013-11-22 12:11:00,66.0,42.0,29.86,WSW,244,0.0,4.0,42,0.00,,,0.00,,2013-11-22 20:11:00,
2013-11-22 12:21:00,66.0,42.0,29.86,NW,317,0.0,4.0,41,0.00,,,0.00,,2013-11-22 20:21:00,
2013-11-22 12:42:00,67.0,43.0,29.85,WSW,240,2.0,9.0,41,0.00,,,0.00,,2013-11-22 20:42:00,
2013-11-22 12:52:00,67.0,42.0,29.86,East,90,2.0,7.0,40,0.00,,,0.00,,2013-11-22 20:52:00,
2013-11-22 13:22:00,67.0,41.0,29.85,West,265,3.0,8.0,39,0.00,,,0.00,,2013-11-22 21:22:00,
2013-11-22 13:43:00,67.0,42.0,29.85,ESE,102,0.0,8.0,40,0.00,,,0.00,,2013-11-22 21:43:00,
2013-11-22 13:53:00,66.0,42.0,29.85,NNW,333,1.0,9.0,41,0.00,,,0.00,,2013-11-22 21:53:00,
2013-11-22 14:23:00,64.0,41.0,29.85,East,96,2.0,9.0,43,0.00,,,0.00,,2013-11-22 22:23:00,
2013-11-22 14:42:00,64.0,41.0,29.85,SSE,147,2.0,8.0,43,0.00,,,0.00,,2013-11-22 22:42:00,
2013-11-22 14:53:00,64.0,41.0,29.85,SW,230,1.0,4.0,43,0.00,,,0.00,,2013-11-22 22:53:00,
2013-11-22 15:22:00,64.0,42.0,29.85,ESE,111,0.0,1.0,44,0.00,,,0.00,,2013-11-22 23:22:00,
2013-11-22 15:42:00,64.0,42.0,29.86,East,92,1.0,6.0,44,0.00,,,0.00,,2013-11-22 23:42:00,
2013-11-22 15:53:00,63.0,41.0,29.86,SSW,211,1.0,3.0,44,0.00,,,0.00,,2013-11-22 23:53:00,
2013-11-22 16:11:00,63.0,41.0,29.86,SSW,212,0.0,4.0,45,0.00,,,0.00,,2013-11-23 00:11:00,
2013-11-22 16:21:00,61.0,41.0,29.87,SSW,211,0.0,1.0,47,0.00,,,0.00,,2013-11-23 00:21:00,
2013-11-22 16:52:00,58.0,40.0,29.87,SSW,211,0.0,0.0,51,0.00,,,0.00,,2013-11-23 00:52:00,
2013-11-22 17:21:00,56.0,41.0,29.88,SSW,211,0.0,0.0,56,0.00,,,0.00,,2013-11-23 01:21:00,
2013-11-22 17:41:00,55.0,40.0,29.89,SE,141,0.0,0.0,57,0.00,,,0.00,,2013-11-23 01:41:00,
2013-11-22 17:52:00,55.0,41.0,29.89,SE,141,0.0,0.0,59,0.00,,,0.00,,2013-11-23 01:52:00,
2013-11-22 18:22:00,54.0,40.0,29.90,SE,141,0.0,0.0,60,0.00,,,0.00,,2013-11-23 02:22:00,
2013-11-22 18:42:00,53.0,41.0,29.90,SE,141,0.0,0.0,63,0.00,,,0.00,,2013-11-23 02:42:00,
2013-11-22 18:52:00,53.0,40.0,29.90,SE,141,0.0,0.0,62,0.00,,,0.00,,2013-11-23 02:52:00,
2013-11-22 19:21:00,53.0,40.0,29.91,SE,141,0.0,0.0,61,0.00,,,0.00,,2013-11-23 03:21:00,
2013-11-22 19:43:00,52.0,39.0,29.91,SE,141,0.0,0.0,62,0.00,,,0.00,,2013-11-23 03:43:00,
2013-11-22 19:53:00,52.0,40.0,29.91,SE,140,0.0,2.0,64,0.00,,,0.00,,2013-11-23 03:53:00,
2013-11-22 20:23:00,52.0,41.0,29.92,SE,140,0.0,0.0,65,0.00,,,0.00,,2013-11-23 04:23:00,
2013-11-22 20:43:00,51.0,39.0,29.92,SE,140,0.0,0.0,64,0.00,,,0.00,,2013-11-23 04:43:00,
2013-11-22 20:53:00,51.0,39.0,29.93,SE,140,0.0,0.0,63,0.00,,,0.00,,2013-11-23 04:53:00,
2013-11-22 21:22:00,52.0,40.0,29.94,SE,140,0.0,0.0,63,0.00,,,0.00,,2013-11-23 05:22:00,
2013-11-22 21:42:00,51.0,39.0,29.95,SE,140,0.0,0.0,63,0.00,,,0.00,,2013-11-23 05:42:00,
2013-11-22 21:53:00,51.0,38.0,29.95,SE,140,3.0,4.0,62,0.00,,,0.00,,2013-11-23 05:53:00,
2013-11-22 22:12:00,51.0,40.0,29.95,SE,140,0.0,0.0,65,0.00,,,0.00,,2013-11-23 06:12:00,
2013-11-22 22:22:00,51.0,38.0,29.94,SE,140,0.0,1.0,62,0.00,,,0.00,,2013-11-23 06:22:00,
2013-11-22 22:42:00,51.0,38.0,29.96,SE,140,0.0,0.0,62,0.00,,,0.00,,2013-11-23 06:42:00,
2013-11-22 22:52:00,51.0,38.0,29.96,SE,140,0.0,1.0,61,0.00,,,0.00,,2013-11-23 06:52:00,
2013-11-22 23:11:00,51.0,39.0,29.95,SE,140,0.0,0.0,63,0.00,,,0.00,,2013-11-23 07:11:00,
2013-11-22 23:21:00,52.0,39.0,29.95,SE,140,0.0,3.0,62,0.00,,,0.00,,2013-11-23 07:21:00,
2013-11-22 23:41:00,51.0,39.0,29.95,SE,132,2.0,4.0,63,0.00,,,0.00,,2013-11-23 07:41:00,
2013-11-22 23:52:00,51.0,38.0,29.95,SE,132,2.0,3.0,62,0.00,,,0.00,,2013-11-23 07:52:00,